SCP
0 0 0 0 0 0 1 0 0 0 0 0 0 0 0 0 0 0 0 0 0 0 0 0 0 0 0 0 0 0 0 1 1 1 0 0 0 0
0 0 0 0 0 0 0 0 0 0 0 0 0 0 0 0 0 0 0 0 0 0 0 0 0 0 0 0 0 0 0 1 1 1 1 0 0 0
0 0 0 0 0 0 0 0 0 0 0 0 0 0 0 0 0 0 0 0 0 0 0 0 0 0 0 0 0 0 0 0 1 1 1 0 0 0
0 0 0 0 0 0 0 0 0 0 0 0 0 0 0 0 0 0 0 0 0 0 0 0 0 0 0 0 0 0 0 0 0 1 1 0 0 0
0 0 0 0 0 0 0 0 0 0 0 0 0 0 0 0 0 0 0 0 0 0 0 0 0 0 0 0 0 0 0 0 0 1 0 0 0 0
0 0 0 0 0 0 0 0 0 0 0 0 0 0 0 0 0 0 0 0 0 0 0 0 0 0 0 0 0 0 0 0 0 0 0 0 0 0
0 0 0 0 0 0 0 0 0 0 0 0 0 0 0 0 0 0 0 0 0 0 0 0 0 0 0 0 0 0 0 0 0 0 0 0 0 0
0 0 0 0 0 0 0 0 0 0 0 0 0 0 0 0 0 0 0 0 0 0 0 0 0 0 0 0 0 0 0 0 0 0 0 0 0 0
0 0 0 0 0 0 0 0 0 0 0 0 0 0 0 0 0 0 0 0 0 0 0 0 0 0 0 0 0 0 0 0 0 0 0 0 0 0
0 0 0 0 0 0 0 0 0 0 0 0 0 0 0 0 0 0 0 0 0 0 0 0 0 0 0 0 0 0 0 0 0 0 0 0 0 0
0 0 0 0 0 0 0 0 0 0 0 0 0 0 0 0 0 0 0 0 0 0 0 0 0 0 0 0 0 0 0 0 0 0 0 0 0 0
0 0 0 0 0 0 0 0 0 0 0 0 0 0 0 0 0 0 0 0 0 0 0 0 0 0 0 0 0 0 0 0 0 0 0 0 0 0
1 0 0 0 0 0 0 0 0 0 0 0 0 0 0 0 0 0 0 0 0 0 0 0 0 0 0 0 0 0 0 0 0 0 0 0 0 0
1 0 0 0 0 0 0 0 0 0 0 0 0 0 0 0 0 0 0 0 0 0 0 0 0 0 0 0 0 0 0 0 0 0 0 0 0 0
0 0 0 0 0 0 0 0 0 0 0 0 0 0 0 0 0 0 0 0 0 0 0 0 0 0 0 0 0 0 0 0 0 0 0 0 0 0
0 0 0 0 0 0 0 0 0 0 0 0 0 0 0 0 0 0 0 0 0 0 0 0 0 0 0 0 0 0 0 0 0 0 0 0 0 0
0 0 0 0 0 0 0 0 0 0 0 0 0 0 0 0 0 0 0 0 0 0 0 0 0 0 0 0 0 0 0 0 0 0 0 0 0 0
0 0 0 0 0 0 0 0 0 0 0 0 0 0 0 0 0 0 0 0 0 0 0 0 0 0 0 0 0 0 0 0 0 0 0 0 0 0
0 0 0 0 0 0 0 0 0 0 0 0 0 0 0 0 0 0 0 0 0 0 0 0 0 0 0 0 0 0 0 0 0 0 0 0 0 0
0 0 0 0 0 0 0 0 0 0 0 0 0 0 0 0 0 0 0 0 0 0 0 0 0 0 0 0 0 0 0 0 0 0 0 0 0 0
0 0 0 0 0 0 0 0 0 0 0 0 0 0 0 0 0 0 0 0 0 0 0 0 0 0 0 0 0 0 0 0 0 0 0 0 0 0
0 0 0 0 0 0 0 0 0 0 0 0 0 0 0 0 0 0 0 0 0 0 0 0 0 0 0 0 0 0 0 0 0 0 0 0 0 0
0 0 0 0 0 0 0 0 0 0 0 0 0 0 0 0 0 0 0 0 0 0 0 0 0 0 0 0 0 0 0 0 0 0 0 0 0 0
Wind_Speed
2 2 1 1 1 1 2 3 4 3 2 2 1 1 1 1 0 0 0 2 3 4 4 4 4 4 5 6 6 6 7 7 7 8 8 9 9 10
2 2 2 1 1 1 1 1 2 3 2 2 2 1 1 0 1 0 1 3 3 3 3 3 3 4 5 5 6 6 7 8 8 9 10 10 10 10
2 2 2 1 1 1 1 1 1 2 2 1 0 0 1 0 1 1 1 1 1 4 4 4 4 4 5 6 6 6 7 8 9 10 10 10 10 11
2 2 2 2 2 1 1 1 1 1 2 2 1 0 0 1 0 1 2 2 2 4 4 5 5 5 5 6 6 7 8 9 9 10 10 10 11 11
3 2 2 2 2 1 1 1 1 1 1 2 1 0 0 0 1 1 1 2 3 4 5 5 5 6 6 7 7 8 8 9 9 9 10 10 11 11
2 2 2 2 3 2 2 2 2 1 1 1 1 1 0 1 0 1 2 2 2 3 4 4 5 6 7 8 8 8 8 9 9 10 10 10 11 12
2 1 1 2 2 2 2 2 2 2 1 1 1 1 1 1 1 1 2 2 2 2 2 2 3 3 4 6 8 8 9 9 10 10 11 11 11 12
2 1 1 1 2 2 2 2 2 2 2 2 2 2 3 2 2 2 1 2 3 1 1 3 2 3 3 3 8 10 9 10 10 10 11 11 12 12
2 2 1 1 1 1 1 1 0 1 3 3 3 3 3 3 2 2 2 3 4 2 2 4 2 4 3 5 10 10 10 10 10 11 11 12 13 13
2 2 2 2 2 2 2 1 0 1 1 1 3 3 2 2 3 3 3 2 2 2 2 3 3 4 4 4 9 10 10 10 11 12 13 13 13 13
2 2 3 2 3 2 2 2 1 1 1 1 2 2 2 2 2 0 1 1 3 3 2 2 3 4 4 4 6 9 9 11 13 13 13 13 13 12
1 2 3 3 3 3 3 3 2 2 1 1 1 2 2 2 2 2 2 2 2 3 2 2 2 3 4 3 3 4 5 9 12 13 13 13 13 7
2 2 2 3 3 3 3 2 3 2 1 1 1 1 1 1 1 1 2 3 3 4 2 1 2 2 3 5 4 4 4 4 5 7 10 13 12 9
3 2 2 3 3 3 2 3 3 1 1 1 1 1 1 2 2 2 2 2 3 5 4 3 3 3 3 5 6 4 3 4 4 5 5 9 10 12
2 3 3 3 2 2 3 3 2 1 1 1 2 2 2 2 2 1 2 2 3 3 3 3 3 3 3 5 5 5 5 5 4 4 5 5 6 6
2 2 2 2 2 2 2 2 2 2 2 2 2 2 1 1 1 1 2 2 2 3 3 3 4 4 4 5 6 7 6 5 5 5 6 6 6 5
2 1 1 1 1 1 1 1 1 1 2 2 2 2 2 2 2 1 1 1 2 3 4 3 3 3 5 6 6 7 6 6 6 6 6 8 7 6
2 2 2 2 2 2 2 2 2 2 2 2 2 2 2 2 2 2 2 2 3 4 4 3 3 4 4 4 7 6 5 5 6 6 6 8 9 7
2 2 3 3 3 3 2 2 2 2 2 2 2 3 3 2 2 3 3 3 3 4 4 3 2 3 5 7 5 5 5 6 6 6 6 6 9 8
2 3 3 3 3 3 3 3 2 2 2 2 3 3 3 3 3 3 3 3 4 4 4 3 3 3 5 6 7 6 7 6 6 7 7 6 7 9
2 2 2 3 3 3 3 3 3 3 3 3 3 3 3 3 4 4 4 6 5 4 5 5 5 6 4 4 5 6 5 7 8 7 6 6 7 6
3 3 3 3 3 3 3 3 3 3 4 3 4 4 4 4 5 5 5 4 5 5 6 5 4 3 3 5 7 8 8 7 7 10 10 9 5 5
3 3 3 3 3 3 3 4 4 4 4 4 4 4 4 4 4 4 5 5 5 5 5 5 4 3 4 5 6 7 9 8 6 6 6 8 11 13
Wind_Direction
132 126 112 106 120 133 145 152 157 172 216 224 233 241 222 189 341 278 312 351 353 353 352 352 358 352 343 337 336 333 328 325 321 314 311 309 306 305
116 112 104 101 98 103 122 122 144 163 187 206 221 219 220 306 346 346 307 345 342 337 338 339 343 335 329 326 328 328 326 322 316 313 311 309 307 305
91 112 104 94 103 97 97 107 126 136 170 229 262 210 169 223 321 330 330 315 310 323 323 322 322 322 319 317 318 319 317 314 311 309 308 306 306 305
129 121 117 108 100 100 109 125 152 156 164 197 242 295 242 250 293 326 332 331 314 317 318 316 316 315 314 312 312 314 313 311 308 306 307 306 305 304
151 146 143 130 125 123 124 133 150 152 157 170 199 208 271 303 2 330 317 312 311 315 312 309 313 316 315 313 312 311 309 306 304 305 305 304 303 302
134 140 148 158 164 163 161 157 147 138 139 157 191 209 248 276 172 297 312 309 306 312 303 305 310 311 309 308 307 303 300 300 301 302 301 300 300 299
122 129 141 156 164 165 163 171 163 160 158 171 204 209 230 230 252 252 277 299 296 285 287 294 298 293 294 298 298 295 295 298 299 300 300 300 299 297
140 132 122 142 126 107 118 154 181 184 193 200 221 226 239 231 231 244 264 300 294 276 284 295 293 287 286 281 292 296 296 298 298 299 299 299 298 296
155 160 151 136 108 133 114 81 39 247 217 210 216 231 230 225 216 242 247 253 266 268 279 281 275 272 275 285 296 295 297 297 296 298 299 299 297 294
168 179 180 188 183 161 142 124 150 277 252 223 212 228 230 223 216 228 240 262 276 271 244 268 275 273 285 279 285 287 295 299 300 299 299 298 296 293
179 185 186 198 198 186 160 169 200 291 341 296 273 272 280 282 271 200 235 279 288 276 234 242 270 290 284 269 272 283 293 298 299 298 297 296 295 294
177 191 201 208 211 205 190 187 214 248 252 313 327 317 292 260 254 216 208 237 276 276 232 233 272 304 296 266 268 282 287 291 295 297 297 297 298 296
190 207 208 208 220 221 223 205 229 239 198 207 271 302 310 284 261 246 232 226 245 259 244 245 274 278 271 292 292 280 278 287 294 292 293 293 293 291
197 211 218 224 228 228 235 238 246 248 171 199 247 268 280 281 274 269 265 256 248 254 254 239 250 257 278 288 291 289 284 279 281 285 285 291 290 289
200 211 223 229 228 225 232 240 236 207 200 226 245 255 254 259 273 282 290 280 279 276 267 249 243 255 262 273 282 286 297 290 271 278 287 287 286 288
204 202 215 214 218 226 233 236 223 211 221 227 240 248 254 262 273 282 283 297 297 298 288 264 252 245 267 273 275 282 284 281 290 291 291 287 282 274
177 181 205 207 201 212 220 216 211 211 231 230 233 251 268 280 287 287 268 285 278 287 299 296 276 261 254 259 271 271 276 281 282 293 297 294 286 274
193 198 215 221 220 219 223 227 226 224 227 234 234 239 250 260 273 275 263 259 272 279 282 289 306 315 305 271 238 257 270 277 286 289 288 290 292 286
206 209 220 225 229 223 225 232 242 239 228 226 233 239 245 250 255 262 264 268 270 272 274 276 280 289 298 299 280 236 258 284 289 290 283 281 287 290
208 212 219 223 228 228 230 234 238 235 232 232 232 238 241 245 251 258 260 262 270 275 279 272 259 257 266 281 287 283 264 266 277 287 292 291 284 284
224 222 223 224 228 229 231 233 231 231 232 232 232 234 238 241 250 253 257 267 271 268 272 273 265 275 279 279 281 286 283 267 267 276 287 293 296 294
227 231 232 227 227 228 232 232 233 233 233 236 237 238 238 239 245 249 252 256 260 265 271 277 278 274 265 268 280 288 296 301 296 287 275 264 270 273
231 230 230 229 230 231 231 231 233 236 234 234 235 237 238 242 246 247 250 253 261 267 275 282 281 269 266 268 278 287 292 299 304 307 298 286 279 274